Simultaneous Nadir Overpasses (SNOs) Predictions

Prediction of SNOs between METOP-A and TERRA Satellite Orbit:

Table of predicted SNOs for the next 14.0 days since TLE Epoch: 3/15/2013
Index Date (METOP-A) Time (METOP-A) Lat,Lon (METOP-A) SZA (METOP-A ) Date (TERRA) Time (TERRA) Lat,Lon (TERRA) SZA (TERRA ) Distance(km) Time Diff (sec)
1 03/17/2013 16:08:25 81.36, -13.94 85.09 03/17/2013 16:09:34 81.37, -13.83 85.13 1.92 69
2 03/17/2013 16:59:05 -81.37, 153.78 94.89 03/17/2013 16:59:01 -81.36, 153.72 94.90 0.96 4
3 03/20/2013 11:42:43 81.36, 52.37 83.99 03/20/2013 11:43:50 81.36, 52.39 84.02 0.59 67
4 03/20/2013 12:33:22 -81.37,-139.50 95.93 03/20/2013 12:33:16 -81.37,-139.64 95.95 2.49 6
5 03/23/2013 07:17:01 81.37, 119.04 82.94 03/23/2013 07:18:06 81.36, 118.88 82.95 2.88 65
6 03/
